Location: *
(49.6619°S, 177.4603°W)
Time: 02:18:36
(UTC+00:00)

ARIANE 5 R/B - Pass Details

Date: 31 January 2023
Orbit: 621 x 654 km, 98.1° (Epoch: 23 September)

Event Time Altitude Azimuth Distance (km) Brightness Sun altitude
Rises 10:21:48 0° 159° (SSE) 2,985 6.7 -19.3°
Reaches altitude 10° 10:24:12 10° 149° (SSE) 2,073 5.7 -19.5°
Maximum altitude 10:28:20 34° 84° (E) 1,086 3.5 -19.7°
Enters shadow 10:28:44 33° 72° (ENE) 1,100 3.5 -19.8°
